Location: Poughquag
(41.6090°N, 73.6820°W)
Time: 21:45:00
(UTC-04:00)

CUBEBUG 2 - Pass Details

Date: 28 May 2024
Orbit: 554 x 642 km, 97.9° (Epoch: 24 June)

Event Time Altitude Azimuth Distance (km) Brightness Sun altitude
Rises 02:52:53 0° 13° (NNE) 2,949 ? -20.9°
Reaches altitude 10° 02:55:05 10° 14° (NNE) 2,046 ? -20.7°
Maximum altitude 02:59:34 85° 101° (ESE) 659 ? -20.3°
Enters shadow 03:00:54 46° 188° (S) 876 ? -20.1°
